Starlink 1523

operational
NORAD ID: 46028 Int'l Des: 2020-055 Owner: SPXS Country: US Constellation: starlink
LEOCIRCULARSTARLINK_TYPE

Über Starlink 1523

Beschreibung wird geladen...

Live-Position

3D-Globus wird geladen...

Nächste Überflüge

Höhenverlauf

Altitude vs Time

uPlot chart will show altitude changes over time

Zweizeiliger Elementsatz

1 46028U 20055B 25353.62976060 .00000277 00000-0 37474-4 0 9991
2 46028 53.0554 126.0240 0001041 95.7386 264.3722 15.06401054296833
Epoch: 19. Dez. 2025 • Age: 17 hours

Aktueller Status

Höhe 554.2 km
Geschwindigkeit 7.58 km/s
Subsatellitenpunkt -23.39°S, 113.13°E
Startdatum 7. Aug. 2020
Alter 5.3 years
Typ internet

Technische Details

Klassifizierung Payload
Masse 260.00 kg
Trockenmasse 248.00 kg
Gesamtmasse 260.00 kg
Länge 0.20 m
Durchmesser 2.80 m
Spannweite 9.00 m
Form Box + pan
Hersteller SPXS
Bus-Typ Starlink
Phasenstatus In Orbit
Besitzer/Staat SPXS/US

Große Konstellationen

Loading constellations...